| time (UTC) | temp C | wind direction | speed KPH | gust KPH | rain 1hr cm | rain 24hr cm | rain mn cm | humidity % | barometer mb |
| 20260507040529 | 5 | 225 | 0.0 | 1.6 | 0.00 | 1.45 | 0.00 | 93 | 1008.6 |
| 20260507040026 | 5 | 225 | 0.0 | 1.6 | 0.00 | 1.45 | 0.00 | 93 | 1008.6 |
| 20260507035525 | 5 | 225 | 0.0 | 0.0 | 0.00 | 1.45 | 1.45 | 92 | 1008.6 |
| 20260507035025 | 6 | 225 | 0.0 | 0.0 | 0.00 | 1.45 | 1.45 | 92 | 1008.6 |
| 20260507034525 | 6 | 225 | 0.0 | 0.0 | 0.00 | 1.45 | 1.45 | 92 | 1008.6 |
| 20260507034025 | 6 | 225 | 0.0 | 0.0 | 0.00 | 1.45 | 1.45 | 92 | 1008.6 |
| 20260507033526 | 6 | 225 | 0.0 | 1.6 | 0.00 | 1.47 | 1.45 | 92 | 1008.7 |
| 20260507033026 | 6 | 224 | 0.0 | 1.6 | 0.00 | 1.50 | 1.45 | 92 | 1008.8 |
| 20260507032523 | 6 | 225 | 0.0 | 1.6 | 0.00 | 1.50 | 1.45 | 92 | 1008.8 |
| 20260507032023 | 6 | 221 | 0.0 | 1.6 | 0.00 | 1.50 | 1.45 | 92 | 1008.8 |
| 20260507031525 | 6 | 221 | 0.0 | 3.2 | 0.00 | 1.52 | 1.45 | 91 | 1008.8 |
| 20260507031253 | 6 | 221 | 0.0 | 3.2 | 0.00 | 1.52 | 1.45 | 91 | 1008.9 |
| 20260507030523 | 6 | 252 | 0.0 | 1.6 | 0.00 | 1.55 | 1.45 | 91 | 1008.9 |
| 20260507030023 | 6 | 252 | 0.0 | 3.2 | 0.00 | 1.55 | 1.45 | 91 | 1008.9 |
| 20260507025524 | 6 | 252 | 0.0 | 3.2 | 0.00 | 1.55 | 1.45 | 91 | 1008.9 |
| 20260507025023 | 6 | 247 | 0.0 | 1.6 | 0.00 | 1.55 | 1.45 | 91 | 1008.9 |
| 20260507024255 | 6 | 253 | 0.0 | 1.6 | 0.00 | 1.55 | 1.45 | 91 | 1008.9 |
| 20260507023523 | 6 | 253 | 0.0 | 1.6 | 0.00 | 1.55 | 1.45 | 92 | 1009.0 |
| 20260507023024 | 6 | 233 | 0.0 | 1.6 | 0.00 | 1.55 | 1.45 | 92 | 1009.0 |
| 20260507022523 | 6 | 233 | 0.0 | 1.6 | 0.00 | 1.55 | 1.45 | 92 | 1009.0 |
| 20260507022255 | 6 | 233 | 0.0 | 1.6 | 0.00 | 1.55 | 1.45 | 92 | 1008.9 |
| 20260507021524 | 6 | 238 | 0.0 | 1.6 | 0.00 | 1.55 | 1.45 | 91 | 1008.9 |
| 20260507021019 | 6 | 238 | 0.0 | 1.6 | 0.00 | 1.55 | 1.45 | 91 | 1008.9 |
| 20260507020517 | 6 | 238 | 0.0 | 0.0 | 0.00 | 1.55 | 1.45 | 92 | 1008.9 |
| 20260507020245 | 6 | 238 | 0.0 | 0.0 | 0.00 | 1.55 | 1.45 | 91 | 1008.9 |
| 20260507015744 | 6 | 238 | 0.0 | 1.6 | 0.00 | 1.55 | 1.45 | 91 | 1008.9 |
| 20260507015011 | 6 | 238 | 0.0 | 1.6 | 0.00 | 1.55 | 1.45 | 91 | 1009.1 |
| 20260507014510 | 6 | 237 | 0.0 | 1.6 | 0.00 | 1.55 | 1.45 | 91 | 1009.2 |
| 20260507014010 | 6 | 237 | 0.0 | 1.6 | 0.00 | 1.55 | 1.45 | 91 | 1009.3 |
| 20260507013508 | 6 | 237 | 0.0 | 1.6 | 0.00 | 1.55 | 1.45 | 91 | 1009.1 |
| 20260507013008 | 6 | 237 | 0.0 | 1.6 | 0.00 | 1.55 | 1.45 | 91 | 1009.2 |
| 20260507012508 | 6 | 243 | 0.0 | 1.6 | 0.00 | 1.55 | 1.45 | 91 | 1009.2 |
| 20260507012003 | 6 | 243 | 0.0 | 1.6 | 0.00 | 1.55 | 1.45 | 91 | 1009.3 |
| 20260507011733 | 6 | 243 | 0.0 | 1.6 | 0.00 | 1.55 | 1.45 | 91 | 1009.2 |
| 20260507010959 | 6 | 243 | 0.0 | 0.0 | 0.00 | 1.55 | 1.45 | 92 | 1009.2 |
| 20260507010728 | 6 | 243 | 0.0 | 0.0 | 0.00 | 1.55 | 1.45 | 91 | 1009.1 |
| 20260507005954 | 6 | 243 | 0.0 | 0.0 | 0.00 | 1.55 | 1.45 | 91 | 1009.0 |
| 20260507005453 | 6 | 243 | 0.0 | 0.0 | 0.00 | 1.55 | 1.45 | 91 | 1009.0 |
| 20260507004954 | 6 | 243 | 0.0 | 0.0 | 0.00 | 1.55 | 1.45 | 91 | 1008.8 |
| 20260507004451 | 6 | 243 | 0.0 | 0.0 | 0.00 | 1.55 | 1.45 | 91 | 1008.9 |
| 20260507003950 | 6 | 243 | 0.0 | 1.6 | 0.00 | 1.55 | 1.45 | 91 | 1008.8 |
| 20260507003447 | 6 | 243 | 0.0 | 1.6 | 0.00 | 1.55 | 1.45 | 91 | 1008.8 |
| 20260507002947 | 6 | 243 | 0.0 | 1.6 | 0.00 | 1.55 | 1.45 | 91 | 1008.9 |
| 20260507002445 | 6 | 238 | 0.0 | 0.0 | 0.00 | 1.55 | 1.45 | 90 | 1008.7 |
| 20260507001944 | 6 | 239 | 0.0 | 0.0 | 0.00 | 1.55 | 1.45 | 90 | 1008.7 |
| 20260507001440 | 7 | 238 | 0.0 | 0.0 | 0.00 | 1.55 | 1.45 | 90 | 1008.6 |
| 20260507000938 | 7 | 238 | 0.0 | 1.6 | 0.00 | 1.55 | 1.45 | 89 | 1008.6 |
| 20260507000442 | 7 | 238 | 0.0 | 1.6 | 0.00 | 1.55 | 1.45 | 88 | 1008.4 |
| 20260506235936 | 7 | 238 | 0.0 | 0.0 | 0.00 | 1.55 | 1.45 | 88 | 1008.4 |
| 20260506235436 | 7 | 238 | 0.0 | 1.6 | 0.00 | 1.55 | 1.45 | 88 | 1008.4 |
| 20260506234936 | 7 | 239 | 0.0 | 1.6 | 0.00 | 1.55 | 1.45 | 88 | 1008.5 |
| 20260506234437 | 7 | 246 | 0.0 | 0.0 | 0.00 | 1.55 | 1.45 | 88 | 1008.5 |
| 20260506233931 | 7 | 246 | 0.0 | 1.6 | 0.00 | 1.55 | 1.45 | 88 | 1008.5 |
| 20260506233431 | 7 | 246 | 0.0 | 3.2 | 0.00 | 1.55 | 1.45 | 88 | 1008.5 |
| 20260506233203 | 7 | 245 | 0.0 | 3.2 | 0.00 | 1.55 | 1.45 | 87 | 1008.3 |
| 20260506232429 | 7 | 245 | 0.0 | 1.6 | 0.00 | 1.55 | 1.45 | 86 | 1008.2 |
| 20260506231928 | 7 | 246 | 0.0 | 1.6 | 0.00 | 1.55 | 1.45 | 86 | 1008.2 |
| 20260506231425 | 7 | 246 | 0.0 | 4.8 | 0.00 | 1.55 | 1.45 | 85 | 1008.1 |
| 20260506230925 | 8 | 271 | 0.0 | 4.8 | 0.00 | 1.55 | 1.45 | 85 | 1008.0 |
| 20260506230420 | 8 | 277 | 0.0 | 1.6 | 0.00 | 1.55 | 1.45 | 85 | 1008.1 |
| 20260506230151 | 8 | 277 | 0.0 | 1.6 | 0.00 | 1.55 | 1.45 | 85 | 1008.1 |
| 20260506225421 | 8 | 311 | 0.0 | 1.6 | 0.00 | 1.55 | 1.45 | 83 | 1008.2 |
| 20260506225151 | 8 | 286 | 0.0 | 1.6 | 0.00 | 1.55 | 1.45 | 84 | 1008.1 |
| 20260506224420 | 8 | 307 | 0.0 | 1.6 | 0.00 | 1.55 | 1.45 | 85 | 1008.1 |
| 20260506223917 | 8 | 307 | 0.0 | 3.2 | 0.00 | 1.55 | 1.45 | 84 | 1008.1 |
| 20260506223416 | 8 | 307 | 0.0 | 3.2 | 0.00 | 1.55 | 1.45 | 84 | 1008.1 |
| 20260506222910 | 8 | 233 | 0.0 | 1.6 | 0.00 | 1.55 | 1.45 | 84 | 1008.1 |
| 20260506222411 | 8 | 233 | 0.0 | 1.6 | 0.00 | 1.55 | 1.45 | 84 | 1008.2 |
| 20260506221910 | 8 | 233 | 0.0 | 1.6 | 0.00 | 1.55 | 1.45 | 83 | 1008.2 |
| 20260506221410 | 8 | 321 | 0.0 | 1.6 | 0.00 | 1.55 | 1.45 | 83 | 1008.3 |
| 20260506220911 | 8 | 231 | 0.0 | 1.6 | 0.00 | 1.55 | 1.45 | 84 | 1008.3 |
| 20260506220638 | 8 | 231 | 0.0 | 1.6 | 0.00 | 1.55 | 1.45 | 83 | 1008.3 |
| 20260506215908 | 8 | 277 | 0.0 | 1.6 | 0.00 | 1.55 | 1.45 | 84 | 1008.1 |
| 20260506215402 | 8 | 235 | 0.0 | 3.2 | 0.00 | 1.55 | 1.45 | 83 | 1008.1 |
| 20260506214900 | 8 | 235 | 0.0 | 3.2 | 0.00 | 1.55 | 1.45 | 84 | 1008.2 |
| 20260506214359 | 8 | 306 | 0.0 | 3.2 | 0.00 | 1.55 | 1.45 | 84 | 1008.3 |
| 20260506213857 | 8 | 289 | 0.0 | 3.2 | 0.00 | 1.55 | 1.45 | 85 | 1008.2 |
| 20260506213354 | 8 | 289 | 0.0 | 3.2 | 0.00 | 1.55 | 1.45 | 86 | 1008.2 |
| 20260506212855 | 8 | 298 | 0.0 | 1.6 | 0.00 | 1.55 | 1.45 | 86 | 1008.2 |
| 20260506212349 | 8 | 280 | 0.0 | 4.8 | 0.00 | 1.55 | 1.45 | 85 | 1008.2 |
| 20260506212116 | 7 | 280 | 0.0 | 4.8 | 0.00 | 1.55 | 1.45 | 85 | 1008.0 |
| 20260506211347 | 7 | 314 | 0.0 | 3.2 | 0.00 | 1.55 | 1.45 | 85 | 1008.1 |
| 20260506210847 | 7 | 9 | 1.6 | 3.2 | 0.00 | 1.55 | 1.45 | 84 | 1008.1 |
| 20260506210346 | 7 | 311 | 0.0 | 4.8 | 0.00 | 1.55 | 1.45 | 85 | 1008.2 |
| 20260506205846 | 7 | 311 | 0.0 | 4.8 | 0.00 | 1.55 | 1.45 | 85 | 1008.4 |
| 20260506205348 | 7 | 310 | 0.0 | 4.8 | 0.00 | 1.55 | 1.45 | 85 | 1008.3 |
| 20260506205111 | 7 | 316 | 1.6 | 4.8 | 0.00 | 1.55 | 1.45 | 84 | 1008.4 |
| 20260506204341 | 7 | 253 | 0.0 | 4.8 | 0.00 | 1.55 | 1.45 | 84 | 1008.3 |
| 20260506203839 | 8 | 285 | 0.0 | 6.4 | 0.00 | 1.57 | 1.45 | 85 | 1008.2 |
| 20260506203338 | 8 | 229 | 0.0 | 6.4 | 0.00 | 1.57 | 1.45 | 87 | 1008.2 |
| 20260506203109 | 8 | 248 | 0.0 | 6.4 | 0.03 | 1.57 | 1.45 | 86 | 1008.3 |
| 20260506202610 | 8 | 316 | 0.0 | 6.4 | 0.03 | 1.57 | 1.45 | 86 | 1008.3 |
| 20260506201838 | 7 | 293 | 0.0 | 4.8 | 0.03 | 1.57 | 1.45 | 87 | 1008.4 |
| 20260506201338 | 7 | 236 | 0.0 | 3.2 | 0.03 | 1.57 | 1.45 | 87 | 1008.4 |
| 20260506200838 | 7 | 300 | 1.6 | 6.4 | 0.03 | 1.57 | 1.45 | 88 | 1008.3 |
| 20260506200339 | 7 | 225 | 1.6 | 6.4 | 0.03 | 1.57 | 1.45 | 88 | 1008.3 |
| 20260506195840 | 7 | 291 | 0.0 | 6.4 | 0.03 | 1.57 | 1.45 | 88 | 1008.4 |
| 20260506195610 | 7 | 281 | 0.0 | 6.4 | 0.03 | 1.57 | 1.45 | 88 | 1008.4 |
| 20260506195108 | 7 | 264 | 0.0 | 1.6 | 0.03 | 1.57 | 1.45 | 89 | 1008.4 |
| 20260506194337 | 7 | 281 | 0.0 | 1.6 | 0.03 | 1.57 | 1.45 | 89 | 1008.4 |
| 20260506193836 | 7 | 323 | 0.0 | 1.6 | 0.03 | 1.57 | 1.45 | 89 | 1008.4 |
| 20260506193332 | 7 | 323 | 0.0 | 1.6 | 0.03 | 1.57 | 1.45 | 87 | 1008.4 |
| 20260506192831 | 7 | 332 | 0.0 | 1.6 | 0.00 | 1.55 | 1.45 | 88 | 1008.3 |
| 20260506192333 | 7 | 332 | 0.0 | 1.6 | 0.03 | 1.55 | 1.45 | 89 | 1008.4 |
| 20260506191832 | 7 | 332 | 0.0 | 1.6 | 0.03 | 1.55 | 1.45 | 88 | 1008.4 |
| 20260506191602 | 7 | 334 | 0.0 | 1.6 | 0.03 | 1.55 | 1.45 | 87 | 1008.4 |
| 20260506190832 | 7 | 319 | 0.0 | 1.6 | 0.03 | 1.60 | 1.45 | 88 | 1008.4 |
| 20260506190333 | 7 | 338 | 0.0 | 1.6 | 0.03 | 1.63 | 1.45 | 86 | 1008.4 |
| 20260506185832 | 7 | 302 | 0.0 | 3.2 | 0.03 | 1.63 | 1.45 | 88 | 1008.4 |
| 20260506185332 | 7 | 356 | 0.0 | 3.2 | 0.05 | 1.65 | 1.45 | 87 | 1008.3 |
| 20260506185105 | 7 | 65 | 0.0 | 4.8 | 0.05 | 1.65 | 1.45 | 87 | 1008.4 |
| 20260506184332 | 7 | 65 | 0.0 | 4.8 | 0.05 | 1.78 | 1.45 | 87 | 1008.4 |
| 20260506183832 | 7 | 286 | 0.0 | 6.4 | 0.05 | 1.83 | 1.45 | 88 | 1008.4 |
| 20260506183332 | 7 | 47 | 0.0 | 6.4 | 0.05 | 1.83 | 1.45 | 86 | 1008.5 |
| 20260506182833 | 7 | 55 | 0.0 | 3.2 | 0.05 | 1.83 | 1.45 | 86 | 1008.5 |
| 20260506182334 | 7 | 281 | 0.0 | 3.2 | 0.05 | 1.80 | 1.42 | 87 | 1008.5 |
| 20260506181828 | 7 | 30 | 0.0 | 3.2 | 0.05 | 1.80 | 1.42 | 89 | 1008.6 |
| 20260506181329 | 7 | 236 | 0.0 | 3.2 | 0.05 | 1.80 | 1.42 | 90 | 1008.7 |
| 20260506180829 | 7 | 58 | 0.0 | 4.8 | 0.05 | 1.80 | 1.42 | 90 | 1008.7 |
| 20260506180556 | 7 | 268 | 0.0 | 4.8 | 0.05 | 1.80 | 1.42 | 91 | 1008.8 |
| 20260506175824 | 7 | 304 | 0.0 | 4.8 | 0.08 | 1.80 | 1.42 | 90 | 1009.0 |
| 20260506175323 | 7 | 304 | 0.0 | 4.8 | 0.05 | 1.78 | 1.40 | 90 | 1009.0 |
| 20260506174819 | 7 | 285 | 0.0 | 6.4 | 0.08 | 1.78 | 1.40 | 90 | 1009.0 |
| 20260506174552 | 7 | 325 | 0.0 | 6.4 | 0.08 | 1.78 | 1.40 | 90 | 1009.2 |
| 20260506173818 | 7 | 293 | 0.0 | 3.2 | 0.08 | 1.75 | 1.37 | 92 | 1009.1 |
| 20260506173316 | 6 | 316 | 0.0 | 6.4 | 0.10 | 1.75 | 1.37 | 91 | 1009.1 |
| 20260506172816 | 6 | 95 | 1.6 | 6.4 | 0.10 | 1.75 | 1.37 | 91 | 1009.2 |
| 20260506172545 | 6 | 311 | 1.6 | 6.4 | 0.13 | 1.75 | 1.37 | 91 | 1009.3 |
| 20260506171814 | 6 | 302 | 1.6 | 4.8 | 0.15 | 1.75 | 1.37 | 92 | 1009.3 |
| 20260506171315 | 6 | 319 | 0.0 | 4.8 | 0.15 | 1.75 | 1.37 | 92 | 1009.3 |
| 20260506170811 | 6 | 309 | 0.0 | 3.2 | 0.15 | 1.75 | 1.37 | 92 | 1009.3 |
| 20260506170543 | 6 | 309 | 1.6 | 6.4 | 0.18 | 1.75 | 1.37 | 92 | 1009.4 |
| 20260506165812 | 6 | 310 | 1.6 | 6.4 | 0.18 | 1.73 | 1.35 | 91 | 1009.3 |
| 20260506165307 | 6 | 297 | 1.6 | 6.4 | 0.20 | 1.73 | 1.35 | 92 | 1009.3 |
| 20260506164806 | 6 | 347 | 1.6 | 8.0 | 0.18 | 1.70 | 1.32 | 91 | 1009.4 |
| 20260506164306 | 6 | 303 | 1.6 | 8.0 | 0.20 | 1.70 | 1.32 | 92 | 1009.5 |
| 20260506163803 | 6 | 338 | 1.6 | 6.4 | 0.23 | 1.68 | 1.30 | 92 | 1009.6 |
| 20260506163303 | 6 | 300 | 0.0 | 4.8 | 0.23 | 1.65 | 1.27 | 92 | 1009.6 |
| 20260506162804 | 6 | 335 | 0.0 | 4.8 | 0.23 | 1.65 | 1.27 | 92 | 1009.8 |
| 20260506162301 | 6 | 300 | 1.6 | 4.8 | 0.23 | 1.65 | 1.27 | 92 | 1009.7 |
| 20260506161802 | 6 | 323 | 1.6 | 4.8 | 0.23 | 1.63 | 1.24 | 92 | 1009.7 |
| 20260506161255 | 6 | 297 | 1.6 | 4.8 | 0.23 | 1.60 | 1.22 | 91 | 1009.7 |
| 20260506160754 | 6 | 351 | 0.0 | 4.8 | 0.23 | 1.57 | 1.19 | 92 | 1009.7 |
| 20260506160251 | 6 | 319 | 0.0 | 4.8 | 0.23 | 1.55 | 1.17 | 92 | 1009.9 |
| 20260506155750 | 6 | 304 | 0.0 | 3.2 | 0.23 | 1.55 | 1.17 | 92 | 1009.9 |
| 20260506155249 | 6 | 304 | 0.0 | 4.8 | 0.23 | 1.52 | 1.17 | 92 | 1009.9 |
| 20260506154748 | 6 | 330 | 0.0 | 4.8 | 0.23 | 1.52 | 1.14 | 92 | 1009.9 |
| 20260506154247 | 6 | 236 | 0.0 | 3.2 | 0.23 | 1.50 | 1.12 | 92 | 1009.9 |
| 20260506153745 | 6 | 356 | 0.0 | 4.8 | 0.20 | 1.45 | 1.09 | 92 | 1009.8 |
| 20260506153517 | 6 | 29 | 1.6 | 4.8 | 0.20 | 1.45 | 1.07 | 92 | 1010.0 |
| 20260506152743 | 6 | 270 | 0.0 | 4.8 | 0.18 | 1.42 | 1.04 | 92 | 1009.9 |
| 20260506152242 | 6 | 304 | 0.0 | 4.8 | 0.18 | 1.40 | 1.02 | 92 | 1010.1 |
| 20260506151739 | 6 | 245 | 0.0 | 3.2 | 0.18 | 1.37 | 0.99 | 92 | 1010.0 |
| 20260506150733 | 6 | 349 | 0.0 | 3.2 | 0.18 | 1.37 | 0.99 | 93 | 1009.9 |
| 20260506150231 | 6 | 319 | 0.0 | 3.2 | 0.18 | 1.35 | 0.97 | 92 | 1010.0 |
| 20260506145730 | 6 | 290 | 0.0 | 3.2 | 0.15 | 1.32 | 0.94 | 92 | 1009.9 |
| 20260506145230 | 6 | 276 | 0.0 | 1.6 | 0.15 | 1.30 | 0.91 | 92 | 1010.0 |
| 20260506144956 | 6 | 276 | 0.0 | 1.6 | 0.15 | 1.27 | 0.89 | 92 | 1010.1 |
| 20260506144227 | 6 | 253 | 0.0 | 1.6 | 0.15 | 1.27 | 0.89 | 92 | 1010.2 |
| 20260506143951 | 6 | 253 | 0.0 | 1.6 | 0.15 | 1.27 | 0.89 | 92 | 1010.0 |
| 20260506143448 | 6 | 253 | 0.0 | 1.6 | 0.13 | 1.24 | 0.86 | 92 | 1009.9 |
| 20260506142715 | 6 | 253 | 0.0 | 1.6 | 0.15 | 1.24 | 0.86 | 92 | 1010.1 |
| 20260506142213 | 6 | 235 | 0.0 | 1.6 | 0.13 | 1.22 | 0.84 | 92 | 1010.1 |
| 20260506141712 | 6 | 235 | 0.0 | 1.6 | 0.13 | 1.19 | 0.81 | 91 | 1010.1 |
| 20260506141212 | 6 | 235 | 0.0 | 1.6 | 0.13 | 1.17 | 0.81 | 91 | 1010.1 |
| 20260506140708 | 6 | 235 | 0.0 | 3.2 | 0.13 | 1.17 | 0.79 | 91 | 1010.0 |
| 20260506140207 | 6 | 294 | 0.0 | 3.2 | 0.10 | 1.17 | 0.79 | 92 | 1010.1 |
| 20260506135706 | 6 | 285 | 0.0 | 3.2 | 0.13 | 1.17 | 0.79 | 92 | 1010.0 |
| 20260506135204 | 6 | 285 | 0.0 | 3.2 | 0.10 | 1.14 | 0.79 | 92 | 1009.8 |
| 20260506134703 | 6 | 324 | 0.0 | 3.2 | 0.13 | 1.14 | 0.76 | 92 | 1008.8 |
| 20260506134152 | 6 | 358 | 0.0 | 4.8 | 0.10 | 1.12 | 0.74 | 91 | 1008.9 |
| 20260506133447 | 6 | 280 | 0.0 | 6.4 | 0.13 | 1.12 | 0.74 | 91 | 1009.9 |
| 20260506132947 | 6 | 264 | 0.0 | 1.6 | 0.10 | 1.09 | 0.71 | 91 | 1009.9 |
| 20260506132448 | 6 | 261 | 0.0 | 1.6 | 0.13 | 1.09 | 0.71 | 91 | 1009.9 |
| 20260506132214 | 6 | 244 | 0.0 | 1.6 | 0.10 | 1.09 | 0.71 | 92 | 1010.0 |
| 20260506131440 | 6 | 257 | 0.0 | 1.6 | 0.10 | 1.07 | 0.71 | 92 | 1010.1 |
| 20260506130937 | 6 | 256 | 0.0 | 3.2 | 0.13 | 1.07 | 0.69 | 91 | 1010.1 |
| 20260506130707 | 6 | 247 | 0.0 | 3.2 | 0.15 | 1.07 | 0.69 | 91 | 1010.0 |
| 20260506130203 | 6 | 107 | 0.0 | 3.2 | 0.15 | 1.07 | 0.69 | 92 | 1009.9 |
| 20260506125702 | 6 | 81 | 0.0 | 3.2 | 0.15 | 1.04 | 0.66 | 91 | 1009.9 |
| 20260506124931 | 6 | 256 | 0.0 | 4.8 | 0.15 | 1.04 | 0.66 | 91 | 1010.1 |
| 20260506124426 | 6 | 287 | 0.0 | 4.8 | 0.15 | 1.02 | 0.64 | 91 | 1010.2 |
| 20260506123923 | 6 | 269 | 0.0 | 4.8 | 0.18 | 1.02 | 0.64 | 91 | 1010.2 |
| 20260506123421 | 6 | 268 | 0.0 | 4.8 | 0.15 | 1.02 | 0.61 | 92 | 1010.3 |
| 20260506122416 | 6 | 248 | 0.0 | 3.2 | 0.20 | 1.02 | 0.61 | 92 | 1010.4 |
| 20260506122147 | 6 | 283 | 0.0 | 3.2 | 0.23 | 1.07 | 0.61 | 91 | 1010.4 |
| 20260506121418 | 6 | 289 | 0.0 | 1.6 | 0.23 | 1.07 | 0.58 | 91 | 1010.3 |
| 20260506120918 | 6 | 302 | 0.0 | 3.2 | 0.25 | 1.04 | 0.56 | 91 | 1010.3 |
| 20260506120419 | 6 | 249 | 0.0 | 3.2 | 0.25 | 1.02 | 0.53 | 91 | 1010.4 |
| 20260506115915 | 6 | 302 | 0.0 | 1.6 | 0.25 | 0.99 | 0.51 | 91 | 1010.3 |
| 20260506115648 | 6 | 316 | 0.0 | 1.6 | 0.25 | 0.99 | 0.51 | 91 | 1010.3 |
| 20260506114915 | 6 | 233 | 0.0 | 3.2 | 0.28 | 0.99 | 0.51 | 91 | 1010.3 |
| 20260506114414 | 6 | 308 | 1.6 | 3.2 | 0.30 | 0.97 | 0.48 | 91 | 1010.3 |
| 20260506114147 | 6 | 319 | 0.0 | 3.2 | 0.28 | 0.94 | 0.46 | 92 | 1010.4 |
| 20260506113646 | 6 | 316 | 0.0 | 3.2 | 0.30 | 0.94 | 0.46 | 92 | 1010.3 |
| 20260506112914 | 6 | 198 | 0.0 | 3.2 | 0.28 | 0.89 | 0.43 | 91 | 1010.4 |
| 20260506112416 | 6 | 319 | 0.0 | 3.2 | 0.25 | 0.89 | 0.41 | 91 | 1010.6 |
| 20260506111916 | 6 | 290 | 0.0 | 3.2 | 0.23 | 0.84 | 0.36 | 91 | 1010.5 |
| 20260506111416 | 6 | 94 | 0.0 | 3.2 | 0.20 | 0.79 | 0.33 | 91 | 1010.6 |
| 20260506110915 | 6 | 265 | 0.0 | 3.2 | 0.20 | 0.79 | 0.30 | 90 | 1010.7 |
| 20260506110415 | 6 | 281 | 0.0 | 3.2 | 0.18 | 0.76 | 0.28 | 90 | 1010.6 |
| 20260506105915 | 7 | 305 | 0.0 | 3.2 | 0.15 | 0.74 | 0.25 | 90 | 1010.4 |
| 20260506105416 | 7 | 275 | 0.0 | 3.2 | 0.15 | 0.71 | 0.23 | 90 | 1010.1 |
| 20260506104915 | 7 | 276 | 0.0 | 3.2 | 0.13 | 0.71 | 0.23 | 90 | 1010.1 |
| 20260506104642 | 7 | 254 | 0.0 | 1.6 | 0.08 | 0.66 | 0.18 | 90 | 1009.9 |
| 20260506103910 | 7 | 254 | 0.0 | 1.6 | 0.08 | 0.66 | 0.18 | 90 | 1009.9 |
| 20260506103410 | 7 | 254 | 0.0 | 1.6 | 0.05 | 0.64 | 0.15 | 89 | 1009.7 |
| 20260506102910 | 7 | 254 | 0.0 | 1.6 | 0.05 | 0.61 | 0.15 | 89 | 1009.6 |
| 20260506102413 | 7 | 254 | 0.0 | 0.0 | 0.05 | 0.61 | 0.15 | 88 | 1009.6 |
| 20260506102138 | 7 | 254 | 0.0 | 0.0 | 0.03 | 0.61 | 0.15 | 87 | 1009.5 |
| 20260506101407 | 7 | 254 | 0.0 | 0.0 | 0.03 | 0.61 | 0.13 | 87 | 1009.7 |
| 20260506100907 | 7 | 254 | 0.0 | 1.6 | 0.00 | 0.58 | 0.10 | 87 | 1009.9 |
| 20260506100406 | 7 | 254 | 0.0 | 1.6 | 0.00 | 0.58 | 0.10 | 86 | 1009.7 |
| 20260506095904 | 7 | 255 | 0.0 | 3.2 | 0.00 | 0.58 | 0.10 | 86 | 1009.8 |
| 20260506095404 | 7 | 177 | 0.0 | 3.2 | 0.00 | 0.58 | 0.10 | 86 | 1009.7 |
| 20260506094903 | 7 | 229 | 0.0 | 4.8 | 0.00 | 0.58 | 0.10 | 86 | 1009.6 |
| 20260506094404 | 7 | 277 | 0.0 | 4.8 | 0.00 | 0.58 | 0.10 | 85 | 1009.7 |
| 20260506094128 | 7 | 248 | 0.0 | 3.2 | 0.00 | 0.58 | 0.10 | 85 | 1009.7 |
| 20260506093357 | 7 | 269 | 0.0 | 4.8 | 0.00 | 0.58 | 0.10 | 86 | 1009.5 |
| 20260506092856 | 7 | 278 | 0.0 | 4.8 | 0.00 | 0.58 | 0.10 | 86 | 1009.4 |
| 20260506092353 | 7 | 241 | 0.0 | 3.2 | 0.00 | 0.58 | 0.10 | 86 | 1009.6 |
| 20260506091852 | 7 | 215 | 0.0 | 3.2 | 0.00 | 0.58 | 0.10 | 87 | 1009.5 |
| 20260506091620 | 7 | 189 | 0.0 | 3.2 | 0.00 | 0.58 | 0.10 | 86 | 1009.5 |
| 20260506090849 | 7 | 228 | 0.0 | 3.2 | 0.00 | 0.58 | 0.10 | 86 | 1009.5 |
| 20260506090347 | 7 | 250 | 0.0 | 1.6 | 0.00 | 0.58 | 0.10 | 86 | 1009.5 |
| 20260506085343 | 7 | 266 | 0.0 | 3.2 | 0.00 | 0.58 | 0.10 | 86 | 1009.4 |
| 20260506084843 | 7 | 250 | 0.0 | 3.2 | 0.00 | 0.58 | 0.10 | 87 | 1009.4 |
| 20260506084342 | 7 | 243 | 0.0 | 6.4 | 0.00 | 0.58 | 0.10 | 87 | 1009.4 |
| 20260506083838 | 7 | 227 | 0.0 | 6.4 | 0.00 | 0.58 | 0.10 | 87 | 1009.6 |
| 20260506083337 | 7 | 283 | 0.0 | 4.8 | 0.00 | 0.58 | 0.10 | 87 | 1009.7 |
| 20260506083107 | 7 | 282 | 0.0 | 4.8 | 0.03 | 0.58 | 0.10 | 87 | 1009.6 |
| 20260506082338 | 7 | 247 | 0.0 | 3.2 | 0.03 | 0.58 | 0.10 | 88 | 1009.6 |
| 20260506081837 | 7 | 245 | 0.0 | 1.6 | 0.05 | 0.58 | 0.10 | 88 | 1009.6 |
| 20260506081334 | 7 | 203 | 0.0 | 3.2 | 0.05 | 0.58 | 0.10 | 88 | 1009.4 |
| 20260506080834 | 7 | 265 | 0.0 | 3.2 | 0.05 | 0.58 | 0.10 | 88 | 1009.5 |
| 20260506080335 | 7 | 253 | 0.0 | 3.2 | 0.05 | 0.58 | 0.10 | 89 | 1009.4 |
| 20260506073324 | 8 | 231 | 0.0 | 3.2 | 0.05 | 0.58 | 0.10 | 89 | 1009.6 |
| 20260506072824 | 8 | 253 | 0.0 | 3.2 | 0.05 | 0.56 | 0.08 | 89 | 1009.6 |
| 20260506072555 | 8 | 283 | 0.0 | 4.8 | 0.05 | 0.56 | 0.08 | 89 | 1009.5 |
| 20260506071825 | 8 | 221 | 1.6 | 4.8 | 0.03 | 0.53 | 0.08 | 89 | 1009.5 |
| 20260506071319 | 8 | 219 | 0.0 | 4.8 | 0.03 | 0.53 | 0.05 | 89 | 1009.7 |
| 20260506070818 | 8 | 215 | 0.0 | 1.6 | 0.05 | 0.53 | 0.05 | 89 | 1009.3 |
| 20260506070545 | 8 | 215 | 0.0 | 3.2 | 0.05 | 0.53 | 0.05 | 89 | 1009.1 |
| 20260506062306 | 8 | 222 | 0.0 | 3.2 | 0.05 | 0.51 | 0.05 | 90 | 1009.4 |
| 20260506061802 | 8 | 240 | 0.0 | 3.2 | 0.05 | 0.51 | 0.05 | 90 | 1009.4 |
| 20260506061534 | 8 | 244 | 0.0 | 3.2 | 0.05 | 0.51 | 0.05 | 90 | 1009.0 |
| 20260506060802 | 8 | 210 | 0.0 | 3.2 | 0.03 | 0.51 | 0.03 | 90 | 1009.0 |
| 20260506060302 | 8 | 157 | 0.0 | 3.2 | 0.03 | 0.51 | 0.03 | 90 | 1009.0 |
| 20260506051246 | 8 | 166 | 0.0 | 1.6 | 0.00 | 0.48 | 0.00 | 86 | 1009.3 |
| 20260506050742 | 8 | 200 | 0.0 | 1.6 | 0.00 | 0.48 | 0.00 | 86 | 1009.3 |
| 20260506050243 | 8 | 200 | 0.0 | 3.2 | 0.00 | 0.48 | 0.00 | 86 | 1009.3 |
| 20260506045003 | 8 | 210 | 0.0 | 4.8 | 0.00 | 0.48 | 0.00 | 85 | 1009.2 |
| 20260506044502 | 8 | 236 | 0.0 | 3.2 | 0.00 | 0.48 | 0.00 | 85 | 1008.9 |
| 20260506043728 | 8 | 236 | 0.0 | 3.2 | 0.03 | 0.48 | 0.00 | 84 | 1009.0 |
| 20260506043228 | 8 | 233 | 0.0 | 4.8 | 0.03 | 0.48 | 0.00 | 84 | 1008.9 |
| 20260506042726 | 8 | 229 | 0.0 | 4.8 | 0.05 | 0.48 | 0.00 | 84 | 1008.8 |
| 20260506042226 | 8 | 259 | 1.6 | 6.4 | 0.05 | 0.48 | 0.00 | 83 | 1008.9 |
| 20260506042010 | 8 | 224 | 1.6 | 8.0 | 0.05 | 0.48 | 0.00 | 83 | 1008.8 |
| 20260506041457 | 8 | 204 | 1.6 | 8.0 | 0.05 | 0.48 | 0.00 | 83 | 1008.8 |